QPF
0.03 0.03 0.02 0.02 0.01 0.01 0.03 0.04 0.03 0.01 0.01 0.01 0.02 0.03 0.03 0.02 0.01 0.01 0.02 0.04 0.04 0.04 0.03 0.03 0.02 0.02 0.01 0.01 0.01 0.02 0.01 0.01 0.00 0.00 0.00 0.00 0.00 0.00 0.00 0.00 0.00 0.00 0.00
0.01 0.02 0.02 0.02 0.01 0.01 0.02 0.02 0.02 0.01 0.01 0.02 0.04 0.04 0.03 0.02 0.01 0.02 0.02 0.02 0.04 0.04 0.03 0.03 0.03 0.03 0.02 0.02 0.01 0.01 0.01 0.01 0.01 0.00 0.00 0.00 0.00 0.00 0.00 0.00 0.00 0.00 0.00
0.01 0.02 0.02 0.02 0.02 0.02 0.02 0.02 0.02 0.02 0.03 0.05 0.06 0.04 0.02 0.01 0.01 0.02 0.02 0.02 0.02 0.03 0.03 0.03 0.04 0.04 0.03 0.02 0.01 0.01 0.01 0.01 0.01 0.00 0.00 0.00 0.00 0.00 0.00 0.00 0.00 0.00 0.00
0.01 0.02 0.03 0.03 0.02 0.02 0.02 0.02 0.03 0.04 0.05 0.04 0.02 0.01 0.01 0.01 0.02 0.02 0.02 0.02 0.02 0.02 0.03 0.03 0.03 0.03 0.03 0.02 0.02 0.01 0.01 0.01 0.01 0.01 0.00 0.00 0.00 0.00 0.00 0.00 0.00 0.00 0.00
0.03 0.03 0.03 0.03 0.03 0.03 0.02 0.03 0.03 0.03 0.03 0.02 0.01 0.02 0.03 0.03 0.03 0.02 0.02 0.02 0.02 0.02 0.02 0.03 0.03 0.03 0.03 0.03 0.02 0.02 0.02 0.02 0.01 0.02 0.01 0.00 0.00 0.01 0.01 0.01 0.00 0.00 0.00
0.03 0.03 0.04 0.04 0.03 0.03 0.03 0.03 0.02 0.03 0.03 0.03 0.04 0.05 0.05 0.04 0.04 0.03 0.03 0.03 0.03 0.03 0.02 0.03 0.04 0.04 0.03 0.03 0.03 0.03 0.03 0.03 0.02 0.03 0.02 0.02 0.01 0.01 0.01 0.01 0.01 0.01 0.01
0.02 0.02 0.02 0.02 0.03 0.02 0.02 0.01 0.02 0.02 0.03 0.05 0.06 0.07 0.06 0.05 0.04 0.04 0.03 0.02 0.02 0.02 0.02 0.02 0.03 0.03 0.03 0.02 0.03 0.04 0.03 0.03 0.03 0.03 0.02 0.01 0.01 0.01 0.02 0.01 0.01 0.01 0.01
0.02 0.03 0.02 0.02 0.02 0.02 0.02 0.03 0.03 0.03 0.03 0.04 0.05 0.05 0.05 0.04 0.03 0.03 0.03 0.02 0.02 0.01 0.02 0.02 0.02 0.02 0.03 0.02 0.02 0.02 0.03 0.03 0.04 0.04 0.03 0.02 0.02 0.01 0.02 0.02 0.02 0.02 0.02
0.02 0.02 0.03 0.03 0.03 0.04 0.05 0.06 0.06 0.07 0.06 0.05 0.05 0.04 0.04 0.03 0.03 0.02 0.02 0.02 0.02 0.02 0.01 0.01 0.02 0.02 0.03 0.04 0.03 0.03 0.02 0.02 0.03 0.03 0.03 0.04 0.04 0.03 0.03 0.03 0.03 0.03 0.02
0.03 0.03 0.05 0.06 0.07 0.08 0.10 0.11 0.13 0.14 0.10 0.07 0.06 0.06 0.04 0.04 0.03 0.03 0.04 0.04 0.03 0.02 0.02 0.02 0.02 0.03 0.03 0.04 0.04 0.05 0.05 0.04 0.04 0.04 0.04 0.04 0.05 0.06 0.06 0.05 0.05 0.04 0.03
0.03 0.04 0.05 0.06 0.08 0.10 0.11 0.11 0.12 0.12 0.10 0.08 0.07 0.06 0.05 0.05 0.04 0.04 0.05 0.06 0.05 0.05 0.04 0.04 0.04 0.04 0.05 0.07 0.09 0.08 0.08 0.08 0.08 0.07 0.05 0.06 0.07 0.07 0.07 0.07 0.06 0.05 0.03
0.03 0.04 0.04 0.05 0.07 0.09 0.10 0.10 0.10 0.11 0.10 0.09 0.08 0.08 0.07 0.07 0.06 0.05 0.06 0.07 0.08 0.07 0.06 0.05 0.06 0.08 0.10 0.12 0.13 0.13 0.12 0.11 0.10 0.09 0.09 0.09 0.09 0.08 0.08 0.08 0.06 0.04 0.02
0.02 0.02 0.03 0.03 0.04 0.07 0.09 0.10 0.13 0.13 0.12 0.12 0.10 0.09 0.08 0.08 0.08 0.08 0.07 0.08 0.08 0.07 0.07 0.08 0.09 0.11 0.12 0.12 0.12 0.12 0.12 0.12 0.13 0.14 0.12 0.10 0.07 0.06 0.05 0.04 0.04 0.03 0.02
0.02 0.01 0.01 0.02 0.02 0.03 0.04 0.05 0.06 0.06 0.07 0.07 0.07 0.06 0.05 0.06 0.06 0.06 0.06 0.06 0.06 0.07 0.08 0.09 0.09 0.09 0.09 0.10 0.11 0.12 0.12 0.13 0.13 0.11 0.08 0.06 0.05 0.04 0.04 0.03 0.03 0.03 0.03
0.01 0.01 0.02 0.02 0.03 0.05 0.05 0.05 0.06 0.05 0.04 0.05 0.05 0.05 0.04 0.04 0.05 0.06 0.06 0.05 0.05 0.07 0.07 0.05 0.05 0.06 0.08 0.11 0.13 0.15 0.13 0.10 0.08 0.06 0.06 0.07 0.07 0.05 0.04 0.04 0.03 0.03 0.04
0.02 0.03 0.06 0.07 0.06 0.05 0.04 0.03 0.03 0.03 0.03 0.03 0.03 0.04 0.04 0.04 0.04 0.04 0.04 0.04 0.04 0.04 0.03 0.03 0.04 0.05 0.07 0.08 0.07 0.06 0.05 0.05 0.05 0.06 0.06 0.05 0.05 0.04 0.05 0.05 0.04 0.04 0.05
0.04 0.05 0.05 0.05 0.04 0.04 0.04 0.03 0.03 0.03 0.03 0.04 0.04 0.04 0.04 0.04 0.03 0.03 0.03 0.04 0.04 0.03 0.03 0.03 0.03 0.03 0.03 0.02 0.02 0.02 0.02 0.02 0.03 0.03 0.04 0.05 0.05 0.04 0.05 0.05 0.05 0.05 0.05
0.02 0.02 0.02 0.02 0.02 0.02 0.03 0.03 0.04 0.04 0.04 0.04 0.04 0.04 0.03 0.03 0.03 0.03 0.04 0.05 0.04 0.03 0.02 0.02 0.01 0.01 0.02 0.01 0.02 0.02 0.03 0.02 0.02 0.03 0.03 0.03 0.04 0.05 0.05 0.06 0.06 0.05 0.04
0.02 0.02 0.02 0.02 0.02 0.03 0.03 0.04 0.04 0.04 0.04 0.04 0.04 0.03 0.03 0.04 0.04 0.04 0.05 0.05 0.04 0.03 0.03 0.02 0.02 0.01 0.02 0.02 0.02 0.03 0.03 0.03 0.03 0.03 0.03 0.03 0.03 0.03 0.03 0.04 0.05 0.06 0.06
0.04 0.03 0.03 0.04 0.04 0.04 0.05 0.06 0.06 0.05 0.05 0.05 0.05 0.04 0.04 0.04 0.04 0.04 0.04 0.05 0.04 0.04 0.04 0.04 0.03 0.03 0.04 0.04 0.04 0.04 0.03 0.03 0.03 0.03 0.03 0.02 0.02 0.02 0.03 0.03 0.04 0.05 0.05
0.03 0.03 0.04 0.04 0.05 0.06 0.07 0.07 0.06 0.06 0.06 0.06 0.06 0.05 0.05 0.04 0.04 0.03 0.03 0.03 0.03 0.03 0.03 0.04 0.04 0.04 0.04 0.03 0.03 0.02 0.02 0.02 0.02 0.02 0.03 0.03 0.03 0.03 0.03 0.04 0.04 0.04 0.03
0.03 0.03 0.03 0.04 0.04 0.04 0.04 0.04 0.05 0.05 0.05 0.05 0.04 0.04 0.03 0.03 0.02 0.02 0.02 0.02 0.03 0.03 0.02 0.02 0.03 0.04 0.04 0.03 0.03 0.02 0.02 0.02 0.02 0.02 0.02 0.03 0.03 0.03 0.04 0.04 0.03 0.03 0.03
0.02 0.03 0.03 0.03 0.03 0.03 0.03 0.03 0.03 0.04 0.04 0.04 0.03 0.03 0.02 0.02 0.03 0.03 0.03 0.02 0.01 0.01 0.01 0.01 0.01 0.02 0.03 0.03 0.03 0.03 0.03 0.03 0.03 0.03 0.03 0.03 0.02 0.02 0.02 0.03 0.03 0.02 0.03
0.05 0.06 0.06 0.05 0.04 0.04 0.04 0.04 0.04 0.04 0.03 0.03 0.03 0.03 0.02 0.01 0.01 0.01 0.02 0.01 0.01 0.01 0.01 0.01 0.02 0.02 0.03 0.03 0.03 0.03 0.04 0.04 0.04 0.04 0.05 0.04 0.03 0.03 0.03 0.03 0.04 0.05 0.05
0.07 0.07 0.08 0.07 0.06 0.05 0.04 0.04 0.04 0.03 0.02 0.02 0.03 0.02 0.01 0.01 0.01 0.01 0.01 0.01 0.02 0.02 0.02 0.02 0.02 0.02 0.03 0.03 0.04 0.04 0.04 0.05 0.05 0.06 0.05 0.04 0.03 0.03 0.03 0.03 0.04 0.05 0.06
0.05 0.05 0.05 0.05 0.04 0.04 0.04 0.03 0.03 0.02 0.02 0.01 0.01 0.01 0.01 0.01 0.01 0.01 0.01 0.02 0.02 0.02 0.02 0.02 0.02 0.03 0.03 0.03 0.04 0.05 0.05 0.06 0.06 0.05 0.04 0.03 0.03 0.03 0.03 0.03 0.03 0.04 0.04
MSLP
1014.61 1014.68 1014.76 1014.82 1014.84 1014.80 1014.71 1014.59 1014.46 1014.35 1014.26 1014.20 1014.18 1014.15 1014.12 1014.07 1013.98 1013.86 1013.72 1013.58 1013.45 1013.36 1013.31 1013.30 1013.32 1013.36 1013.38 1013.38 1013.33 1013.23 1013.08 1012.87 1012.62 1012.34 1012.04 1011.72 1011.40 1011.10 1010.81 1010.57 1010.37 1010.24 1010.18
1014.56 1014.52 1014.51 1014.49 1014.47 1014.42 1014.37 1014.31 1014.25 1014.22 1014.20 1014.20 1014.21 1014.20 1014.16 1014.08 1013.95 1013.79 1013.59 1013.39 1013.19 1013.03 1012.91 1012.83 1012.78 1012.76 1012.75 1012.72 1012.68 1012.61 1012.51 1012.37 1012.20 1011.99 1011.75 1011.47 1011.17 1010.84 1010.51 1010.18 1009.87 1009.61 1009.41
1014.69 1014.54 1014.43 1014.34 1014.27 1014.22 1014.18 1014.17 1014.19 1014.23 1014.28 1014.34 1014.38 1014.38 1014.34 1014.23 1014.07 1013.86 1013.61 1013.36 1013.11 1012.89 1012.70 1012.56 1012.45 1012.37 1012.32 1012.26 1012.21 1012.15 1012.07 1011.98 1011.85 1011.70 1011.51 1011.27 1010.98 1010.65 1010.28 1009.88 1009.49 1009.12 1008.79
1015.01 1014.78 1014.59 1014.44 1014.33 1014.27 1014.25 1014.28 1014.35 1014.45 1014.56 1014.66 1014.72 1014.73 1014.67 1014.54 1014.34 1014.09 1013.80 1013.50 1013.21 1012.95 1012.72 1012.53 1012.37 1012.25 1012.14 1012.05 1011.97 1011.89 1011.81 1011.73 1011.63 1011.51 1011.34 1011.13 1010.87 1010.54 1010.15 1009.72 1009.27 1008.82 1008.40
1015.53 1015.25 1015.02 1014.83 1014.69 1014.63 1014.63 1014.69 1014.80 1014.94 1015.09 1015.21 1015.28 1015.27 1015.19 1015.02 1014.78 1014.48 1014.15 1013.82 1013.50 1013.21 1012.96 1012.74 1012.56 1012.40 1012.25 1012.12 1012.00 1011.89 1011.78 1011.68 1011.58 1011.46 1011.31 1011.12 1010.87 1010.55 1010.17 1009.74 1009.26 1008.76 1008.28
1016.22 1015.94 1015.69 1015.49 1015.36 1015.30 1015.31 1015.40 1015.54 1015.70 1015.86 1015.99 1016.04 1016.00 1015.88 1015.66 1015.37 1015.03 1014.67 1014.32 1013.98 1013.68 1013.42 1013.20 1013.00 1012.82 1012.64 1012.48 1012.31 1012.15 1012.00 1011.87 1011.73 1011.60 1011.45 1011.26 1011.03 1010.73 1010.37 1009.95 1009.47 1008.96 1008.43
1017.05 1016.80 1016.57 1016.38 1016.26 1016.22 1016.26 1016.37 1016.52 1016.69 1016.85 1016.95 1016.98 1016.90 1016.72 1016.46 1016.12 1015.74 1015.35 1014.98 1014.64 1014.34 1014.09 1013.87 1013.68 1013.49 1013.29 1013.10 1012.89 1012.69 1012.49 1012.30 1012.12 1011.96 1011.79 1011.59 1011.37 1011.09 1010.75 1010.35 1009.89 1009.38 1008.83
1017.97 1017.77 1017.58 1017.43 1017.34 1017.32 1017.38 1017.50 1017.66 1017.83 1017.97 1018.04 1018.03 1017.91 1017.68 1017.37 1016.99 1016.58 1016.17 1015.79 1015.46 1015.18 1014.94 1014.74 1014.56 1014.37 1014.17 1013.95 1013.71 1013.46 1013.21 1012.97 1012.74 1012.53 1012.32 1012.11 1011.88 1011.61 1011.29 1010.90 1010.45 1009.94 1009.39
1018.94 1018.79 1018.64 1018.53 1018.47 1018.47 1018.55 1018.67 1018.83 1018.99 1019.11 1019.16 1019.11 1018.95 1018.69 1018.34 1017.93 1017.51 1017.09 1016.72 1016.40 1016.13 1015.92 1015.74 1015.57 1015.40 1015.19 1014.95 1014.69 1014.40 1014.10 1013.80 1013.52 1013.26 1013.01 1012.76 1012.51 1012.23 1011.91 1011.53 1011.08 1010.57 1010.00
1019.91 1019.80 1019.70 1019.61 1019.57 1019.59 1019.66 1019.79 1019.94 1020.08 1020.18 1020.20 1020.12 1019.94 1019.66 1019.30 1018.89 1018.46 1018.05 1017.69 1017.40 1017.16 1016.97 1016.80 1016.65 1016.47 1016.27 1016.01 1015.72 1015.39 1015.05 1014.71 1014.37 1014.06 1013.76 1013.47 1013.18 1012.88 1012.54 1012.15 1011.70 1011.18 1010.60
1020.86 1020.77 1020.68 1020.61 1020.57 1020.58 1020.65 1020.76 1020.88 1021.00 1021.07 1021.08 1020.98 1020.79 1020.51 1020.16 1019.76 1019.36 1018.98 1018.64 1018.37 1018.15 1017.98 1017.82 1017.67 1017.49 1017.27 1017.01 1016.69 1016.33 1015.95 1015.57 1015.19 1014.82 1014.48 1014.15 1013.82 1013.48 1013.11 1012.70 1012.24 1011.71 1011.12
1021.74 1021.66 1021.56 1021.48 1021.43 1021.42 1021.45 1021.53 1021.62 1021.70 1021.75 1021.73 1021.63 1021.45 1021.18 1020.85 1020.49 1020.12 1019.77 1019.47 1019.22 1019.02 1018.85 1018.69 1018.53 1018.34 1018.10 1017.81 1017.47 1017.09 1016.69 1016.27 1015.86 1015.46 1015.08 1014.71 1014.34 1013.97 1013.57 1013.14 1012.66 1012.13 1011.54
1022.54 1022.44 1022.32 1022.21 1022.12 1022.08 1022.07 1022.09 1022.13 1022.17 1022.18 1022.14 1022.04 1021.86 1021.61 1021.32 1021.00 1020.67 1020.36 1020.09 1019.86 1019.66 1019.49 1019.32 1019.13 1018.91 1018.65 1018.34 1017.98 1017.58 1017.16 1016.73 1016.30 1015.89 1015.49 1015.10 1014.71 1014.31 1013.90 1013.45 1012.97 1012.44 1011.87
1023.22 1023.09 1022.94 1022.79 1022.67 1022.57 1022.50 1022.47 1022.45 1022.44 1022.40 1022.33 1022.20 1022.02 1021.80 1021.53 1021.25 1020.96 1020.69 1020.44 1020.21 1020.01 1019.82 1019.62 1019.41 1019.15 1018.86 1018.52 1018.14 1017.74 1017.32 1016.89 1016.47 1016.06 1015.67 1015.28 1014.89 1014.49 1014.07 1013.63 1013.16 1012.64 1012.10
1023.75 1023.59 1023.42 1023.24 1023.07 1022.92 1022.80 1022.70 1022.61 1022.53 1022.44 1022.32 1022.16 1021.97 1021.74 1021.49 1021.23 1020.97 1020.71 1020.48 1020.25 1020.03 1019.81 1019.58 1019.32 1019.03 1018.70 1018.34 1017.95 1017.55 1017.14 1016.74 1016.35 1015.98 1015.61 1015.25 1014.88 1014.50 1014.10 1013.68 1013.22 1012.74 1012.23
1024.11 1023.94 1023.75 1023.55 1023.35 1023.16 1022.98 1022.82 1022.66 1022.50 1022.34 1022.16 1021.95 1021.73 1021.48 1021.22 1020.96 1020.70 1020.45 1020.21 1019.97 1019.72 1019.47 1019.20 1018.89 1018.56 1018.21 1017.83 1017.44 1017.05 1016.67 1016.31 1015.96 1015.64 1015.32 1015.01 1014.68 1014.34 1013.98 1013.58 1013.16 1012.71 1012.23
1024.30 1024.13 1023.94 1023.73 1023.51 1023.29 1023.07 1022.85 1022.62 1022.39 1022.15 1021.89 1021.62 1021.34 1021.05 1020.77 1020.48 1020.21 1019.94 1019.68 1019.41 1019.14 1018.85 1018.53 1018.19 1017.83 1017.44 1017.06 1016.67 1016.30 1015.95 1015.64 1015.35 1015.08 1014.82 1014.56 1014.30 1014.00 1013.68 1013.32 1012.93 1012.52 1012.07
1024.33 1024.17 1023.99 1023.79 1023.57 1023.33 1023.08 1022.80 1022.51 1022.20 1021.88 1021.54 1021.19 1020.84 1020.49 1020.15 1019.83 1019.52 1019.23 1018.93 1018.64 1018.33 1018.01 1017.66 1017.28 1016.89 1016.49 1016.10 1015.72 1015.37 1015.05 1014.78 1014.54 1014.32 1014.13 1013.93 1013.71 1013.47 1013.19 1012.87 1012.51 1012.13 1011.72
1024.22 1024.08 1023.91 1023.73 1023.51 1023.26 1022.98 1022.66 1022.31 1021.93 1021.52 1021.09 1020.66 1020.23 1019.81 1019.42 1019.04 1018.69 1018.36 1018.04 1017.72 1017.38 1017.03 1016.65 1016.26 1015.85 1015.43 1015.03 1014.66 1014.32 1014.03 1013.78 1013.58 1013.41 1013.26 1013.10 1012.93 1012.73 1012.49 1012.20 1011.88 1011.52 1011.14
1024.00 1023.87 1023.72 1023.54 1023.33 1023.07 1022.77 1022.40 1021.99 1021.54 1021.05 1020.54 1020.02 1019.51 1019.02 1018.57 1018.14 1017.76 1017.39 1017.04 1016.70 1016.35 1015.98 1015.59 1015.18 1014.76 1014.33 1013.93 1013.55 1013.22 1012.93 1012.70 1012.51 1012.36 1012.24 1012.11 1011.97 1011.80 1011.59 1011.33 1011.04 1010.70 1010.34
1023.70 1023.57 1023.43 1023.25 1023.03 1022.75 1022.41 1022.00 1021.53 1021.00 1020.44 1019.85 1019.25 1018.68 1018.13 1017.62 1017.16 1016.74 1016.35 1015.99 1015.64 1015.28 1014.91 1014.52 1014.10 1013.68 1013.25 1012.84 1012.45 1012.11 1011.81 1011.57 1011.38 1011.23 1011.11 1010.99 1010.86 1010.70 1010.51 1010.28 1010.01 1009.71 1009.38
1023.34 1023.20 1023.04 1022.84 1022.59 1022.28 1021.89 1021.43 1020.89 1020.30 1019.67 1019.01 1018.36 1017.73 1017.13 1016.59 1016.11 1015.68 1015.28 1014.93 1014.58 1014.24 1013.87 1013.49 1013.08 1012.66 1012.23 1011.80 1011.40 1011.04 1010.72 1010.45 1010.24 1010.07 1009.92 1009.79 1009.66 1009.51 1009.33 1009.12 1008.87 1008.60 1008.30
1022.92 1022.74 1022.55 1022.31 1022.01 1021.65 1021.20 1020.68 1020.09 1019.43 1018.74 1018.04 1017.34 1016.68 1016.07 1015.51 1015.02 1014.60 1014.22 1013.88 1013.56 1013.24 1012.90 1012.54 1012.14 1011.73 1011.29 1010.86 1010.44 1010.05 1009.70 1009.39 1009.14 1008.92 1008.75 1008.59 1008.44 1008.28 1008.11 1007.91 1007.69 1007.45 1007.19
1022.43 1022.21 1021.96 1021.66 1021.30 1020.87 1020.36 1019.78 1019.13 1018.43 1017.70 1016.96 1016.25 1015.57 1014.96 1014.42 1013.95 1013.55 1013.21 1012.90 1012.61 1012.32 1012.02 1011.68 1011.31 1010.90 1010.47 1010.03 1009.59 1009.17 1008.78 1008.43 1008.13 1007.87 1007.66 1007.46 1007.29 1007.11 1006.93 1006.74 1006.54 1006.33 1006.11
1021.84 1021.57 1021.25 1020.89 1020.46 1019.97 1019.39 1018.76 1018.06 1017.33 1016.57 1015.83 1015.12 1014.46 1013.87 1013.36 1012.93 1012.57 1012.27 1012.00 1011.76 1011.51 1011.23 1010.93 1010.58 1010.19 1009.76 1009.31 1008.86 1008.41 1007.99 1007.60 1007.26 1006.95 1006.69 1006.46 1006.25 1006.05 1005.86 1005.67 1005.47 1005.28 1005.08
1021.13 1020.80 1020.42 1019.99 1019.50 1018.94 1018.32 1017.64 1016.92 1016.18 1015.43 1014.70 1014.02 1013.39 1012.85 1012.38 1012.00 1011.69 1011.43 1011.21 1011.00 1010.79 1010.55 1010.27 1009.94 1009.57 1009.15 1008.70 1008.24 1007.78 1007.33 1006.91 1006.52 1006.17 1005.86 1005.59 1005.34 1005.12 1004.91 1004.70 1004.50 1004.31 1004.12
Thickness
5789 5787 5785 5783 5781 5779 5776 5775 5773 5772 5770 5768 5766 5764 5762 5761 5759 5757 5755 5754 5752 5750 5749 5747 5745 5744 5742 5740 5738 5736 5734 5731 5728 5729 5729 5728 5726 5725 5724 5722 5720 5718 5717
5790 5787 5785 5783 5780 5778 5776 5774 5773 5771 5769 5767 5765 5762 5761 5759 5758 5755 5753 5752 5750 5748 5746 5744 5743 5742 5739 5738 5735 5733 5731 5730 5727 5724 5724 5724 5723 5721 5720 5718 5717 5715 5713
5790 5786 5783 5781 5779 5777 5775 5773 5771 5769 5767 5765 5763 5761 5759 5757 5756 5754 5752 5750 5749 5747 5745 5743 5741 5739 5737 5735 5733 5731 5729 5728 5724 5721 5720 5719 5718 5717 5715 5714 5713 5711 5710
5789 5785 5781 5779 5778 5776 5774 5772 5769 5767 5765 5763 5761 5759 5757 5755 5753 5751 5749 5747 5746 5745 5743 5741 5739 5737 5735 5733 5730 5728 5726 5723 5720 5718 5715 5714 5712 5711 5709 5708 5707 5706 5704
5787 5783 5781 5779 5776 5774 5772 5769 5767 5765 5763 5761 5758 5756 5754 5752 5750 5748 5746 5744 5742 5741 5739 5738 5736 5735 5733 5730 5728 5726 5723 5719 5716 5713 5711 5708 5707 5705 5704 5703 5701 5700 5699
5785 5782 5779 5776 5773 5771 5769 5766 5763 5761 5759 5756 5754 5752 5750 5749 5748 5745 5743 5740 5738 5735 5734 5733 5732 5731 5729 5726 5725 5722 5720 5716 5713 5710 5707 5704 5703 5701 5699 5697 5694 5692 5691
5782 5779 5776 5773 5770 5768 5766 5762 5759 5757 5754 5751 5749 5747 5745 5744 5742 5740 5738 5735 5732 5730 5728 5727 5727 5726 5723 5721 5720 5717 5715 5713 5711 5708 5705 5702 5700 5698 5695 5692 5689 5687 5685
5778 5775 5773 5769 5766 5764 5760 5757 5754 5752 5749 5746 5744 5742 5740 5739 5737 5735 5733 5730 5727 5725 5724 5722 5720 5719 5718 5715 5713 5711 5710 5708 5706 5703 5701 5700 5698 5695 5691 5688 5685 5681 5679
5773 5771 5769 5766 5762 5758 5754 5751 5749 5745 5743 5741 5739 5737 5735 5733 5732 5730 5727 5724 5721 5720 5719 5718 5716 5714 5712 5709 5706 5705 5703 5703 5702 5699 5696 5693 5691 5687 5684 5680 5677 5673 5672
5770 5768 5765 5763 5757 5753 5750 5746 5743 5740 5739 5737 5734 5732 5730 5728 5727 5725 5722 5719 5716 5714 5713 5712 5710 5708 5706 5703 5700 5698 5696 5695 5694 5692 5688 5686 5683 5680 5677 5674 5671 5666 5664
5765 5762 5759 5757 5753 5751 5747 5743 5740 5736 5733 5731 5729 5727 5725 5723 5721 5720 5717 5714 5711 5708 5706 5706 5705 5702 5700 5697 5694 5692 5691 5689 5686 5683 5681 5678 5676 5673 5670 5667 5664 5660 5657
5759 5755 5753 5751 5749 5746 5741 5738 5735 5731 5727 5725 5723 5721 5720 5718 5716 5715 5712 5709 5706 5703 5701 5700 5698 5696 5693 5691 5688 5686 5683 5680 5678 5674 5672 5670 5668 5666 5664 5661 5658 5654 5651
5751 5748 5745 5743 5741 5739 5735 5732 5728 5725 5721 5719 5717 5715 5714 5713 5711 5708 5705 5702 5700 5697 5695 5693 5691 5689 5686 5683 5681 5678 5675 5672 5669 5666 5664 5663 5661 5658 5656 5653 5650 5647 5643
5743 5740 5737 5735 5733 5730 5728 5725 5721 5718 5715 5712 5710 5708 5706 5705 5703 5701 5698 5695 5692 5689 5687 5684 5682 5680 5678 5676 5673 5671 5668 5665 5662 5659 5657 5655 5653 5650 5647 5644 5641 5638 5634
5735 5732 5730 5727 5725 5722 5720 5718 5715 5714 5711 5707 5705 5702 5699 5698 5697 5694 5690 5688 5686 5682 5678 5675 5674 5672 5670 5668 5665 5663 5660 5656 5653 5650 5648 5646 5643 5641 5638 5634 5631 5627 5625
5726 5724 5722 5719 5717 5715 5712 5709 5708 5705 5703 5701 5699 5697 5695 5693 5691 5687 5683 5680 5676 5673 5669 5667 5666 5665 5662 5660 5658 5655 5652 5649 5646 5643 5640 5636 5634 5631 5628 5625 5621 5618 5615
5718 5716 5714 5712 5710 5707 5705 5702 5699 5697 5695 5693 5691 5688 5686 5684 5681 5678 5675 5671 5667 5663 5661 5660 5658 5656 5654 5652 5650 5648 5645 5641 5637 5634 5631 5628 5625 5622 5619 5616 5612 5609 5607
5710 5708 5706 5704 5703 5700 5698 5695 5693 5690 5688 5686 5683 5680 5677 5675 5671 5668 5665 5661 5658 5654 5653 5652 5650 5648 5646 5644 5641 5639 5636 5633 5629 5625 5622 5619 5616 5613 5610 5607 5604 5601 5599
5701 5700 5698 5696 5694 5692 5690 5687 5685 5682 5680 5678 5675 5673 5669 5666 5662 5658 5654 5652 5651 5648 5646 5643 5641 5639 5637 5634 5632 5630 5627 5624 5620 5617 5614 5610 5607 5604 5601 5599 5596 5593 5589
5693 5692 5689 5687 5684 5682 5680 5677 5675 5673 5671 5668 5666 5664 5661 5657 5653 5650 5646 5644 5642 5640 5638 5635 5633 5630 5627 5625 5622 5620 5617 5614 5611 5608 5605 5602 5599 5596 5593 5590 5587 5584 5581
5684 5683 5680 5678 5675 5672 5670 5668 5666 5663 5661 5659 5657 5655 5651 5648 5645 5642 5638 5635 5633 5631 5629 5627 5624 5621 5618 5615 5612 5610 5607 5604 5601 5598 5595 5593 5590 5587 5584 5581 5578 5575 5572
5675 5673 5671 5668 5666 5663 5661 5659 5657 5654 5652 5649 5647 5645 5640 5638 5636 5633 5631 5628 5626 5623 5621 5618 5615 5611 5608 5605 5602 5599 5596 5594 5591 5588 5585 5583 5580 5577 5574 5571 5569 5566 5563
5666 5663 5661 5658 5656 5652 5650 5648 5646 5644 5641 5640 5638 5634 5631 5629 5627 5624 5622 5619 5616 5613 5611 5607 5604 5601 5597 5594 5591 5588 5585 5582 5579 5577 5574 5572 5569 5566 5565 5563 5560 5557 5555
5656 5653 5650 5648 5645 5642 5640 5638 5636 5634 5632 5630 5627 5625 5622 5619 5617 5614 5611 5608 5605 5602 5599 5596 5593 5590 5586 5583 5580 5577 5574 5572 5569 5566 5563 5561 5559 5556 5554 5553 5551 5548 5545
5644 5642 5640 5637 5635 5632 5630 5628 5626 5624 5622 5619 5617 5615 5612 5609 5606 5603 5600 5596 5593 5590 5587 5584 5581 5578 5575 5572 5569 5566 5563 5560 5558 5555 5552 5550 5548 5546 5544 5542 5540 5538 5535
5633 5631 5629 5627 5625 5622 5620 5618 5616 5613 5611 5609 5606 5604 5600 5597 5594 5592 5589 5585 5582 5579 5576 5573 5570 5567 5564 5561 5558 5554 5551 5549 5546 5544 5542 5540 5537 5536 5534 5532 5530 5528 5526